Hourly Data Report for October 08, 2013

All times are specified in Local Standard Time (LST). Add 1 hour to adjust for Daylight Saving Time where and when it is observed.

TORONTO INTL A
ONTARIO

43°40'36.000" N
79°37'50.000" W
173.40 m
6158731
71624
YYZ

Download Data

Hourly Data (October 2013)
Hourly Data Report for October 8, 2013
Temp Definition
°C
Dew Point Temp Definition
°C
Rel Hum Definition
%
Wind Dir Definition
10's deg

Wind Spd Definition
km/h
Visibility Definition
km
Stn Press Definition
kPa
Hmdx Definition


Wind Chill Definition


Weather Definition


TIME
00:00 Legend Double Dagger 7.9 6.4 90 24 15 24.1 99.75     LegendNANA
01:00 Legend Double Dagger 7.0 5.8 92 25 12 24.1 99.83     Mainly Clear
02:00 Legend Double Dagger 7.6 6.4 92 26 7 24.1 99.89     LegendNANA
03:00 Legend Double Dagger 7.3 5.8 90 26 5 24.1 99.96     LegendNANA
04:00 Legend Double Dagger 7.2 5.5 89 27 12 24.1 100.06     Mainly Clear
05:00 Legend Double Dagger 6.8 5.4 91 27 13 24.1 100.11     LegendNANA
06:00 Legend Double Dagger 7.3 5.1 86 28 6 24.1 100.20     LegendNANA
07:00 Legend Double Dagger 7.4 5.4 87 25 10 24.1 100.32     Mainly Clear
08:00 Legend Double Dagger 9.9 7.2 83 27 6 24.1 100.41     LegendNANA
09:00 Legend Double Dagger 11.5 7.3 75 26 8 24.1 100.50     LegendNANA
10:00 Legend Double Dagger 13.5 7.1 65 32 8 24.1 100.49     Mainly Clear
11:00 Legend Double Dagger 14.4 6.6 59 27 7 24.1 100.53     LegendNANA
12:00 Legend Double Dagger 14.9 5.8 54 32 6 24.1 100.52     LegendNANA
13:00 Legend Double Dagger 16.5 6.4 51 19 5 24.1 100.49     Mostly Cloudy
14:00 Legend Double Dagger 16.1 8.7 61 16 11 24.1 100.48     LegendNANA
15:00 Legend Double Dagger 16.3 7.6 56 17 13 24.1 100.46     LegendNANA
16:00 Legend Double Dagger 16.0 7.3 56 15 15 24.1 100.49     Mainly Clear
17:00 Legend Double Dagger 15.2 8.0 62 15 12 24.1 100.51     LegendNANA
18:00 Legend Double Dagger 14.2 8.0 66 14 8 24.1 100.51     LegendNANA
19:00 Legend Double Dagger 13.5 8.6 72 13 7 24.1 100.55     Clear
20:00 Legend Double Dagger 13.1 9.2 77 14 7 24.1 100.59     LegendNANA
21:00 Legend Double Dagger 12.6 9.6 82 15 6 24.1 100.62     LegendNANA
22:00 Legend Double Dagger 12.6 9.6 82 16 7 24.1 100.62     Clear
23:00 Legend Double Dagger 12.0 9.6 85 16 7 24.1 100.61     LegendNANA

Notes on Data Quality.

Legend

  • E = Estimated
  • M = Missing
  • NA = Not Available
  • ‡ = Partner data that is not subject to review by the National Climate Archives
Date modified: